EHI
0 0 0 0 0 0 0 0 0 0 0 0 0 0 0 0 0 1 1 1 0 0 0 0 0 1 1 1 0 0 0 0 0 0 0 0 0 0
0 0 0 0 0 0 0 0 0 0 0 0 0 0 0 0 0 0 0 0 0 0 0 0 0 0 0 0 0 0 0 0 0 0 0 0 0 0
0 0 0 0 0 0 0 0 0 0 0 0 0 0 0 0 0 0 0 0 0 0 0 0 0 0 0 0 0 0 0 0 0 0 0 0 0 0
0 0 0 0 0 0 0 0 0 0 0 0 0 0 0 0 0 0 0 0 0 0 0 0 0 0 0 0 0 0 0 0 0 0 0 0 0 0
0 0 0 0 0 0 0 0 0 0 0 0 0 0 0 0 0 0 0 0 0 0 0 0 0 0 0 0 0 0 0 0 0 0 0 0 0 0
0 0 0 0 0 0 0 0 0 0 0 0 0 0 0 0 0 0 0 0 0 0 0 0 0 0 0 0 0 0 0 0 0 0 0 0 0 0
0 0 0 0 0 0 0 0 0 0 0 0 0 0 0 0 0 0 0 0 0 0 0 0 0 0 0 0 0 0 0 0 0 0 0 0 0 0
0 0 0 0 0 0 0 0 0 0 0 0 0 0 0 0 0 0 0 0 0 0 0 0 0 0 0 0 0 0 0 0 0 0 0 0 0 0
0 0 0 0 0 0 0 0 0 0 0 0 0 0 0 0 0 0 0 0 0 0 0 0 0 0 0 0 0 0 0 0 0 0 0 0 0 0
0 0 0 0 0 0 0 0 0 0 0 0 0 0 0 0 0 0 0 0 0 0 0 0 0 0 0 0 0 0 0 0 0 0 0 0 0 0
0 0 0 0 0 0 0 0 0 0 0 0 0 0 0 0 0 0 0 0 0 0 0 0 0 0 0 0 0 0 0 0 0 0 0 0 0 0
0 0 0 0 0 0 0 0 0 0 0 0 0 0 0 0 0 0 0 0 0 0 0 0 0 0 0 0 0 0 0 0 0 0 0 0 0 0
0 0 0 0 0 0 0 0 0 0 0 0 0 0 0 0 0 0 0 0 0 0 0 0 0 0 0 0 0 0 0 0 0 0 0 0 0 0
0 0 0 0 0 0 0 0 0 0 0 0 0 0 0 0 0 0 0 0 0 0 0 0 0 0 0 0 0 0 0 0 0 0 0 0 0 0
0 0 0 0 0 0 0 0 0 0 0 0 0 0 0 0 0 0 0 0 0 0 0 0 0 0 0 0 0 0 0 0 0 0 0 0 0 0
0 0 0 0 0 0 0 0 0 0 0 0 0 0 0 0 0 0 0 0 0 0 0 0 0 0 0 0 0 0 0 0 0 0 0 0 0 0
0 0 0 0 0 0 0 0 0 0 0 0 0 0 0 0 0 0 0 0 0 0 0 0 0 0 0 0 0 0 0 0 0 0 0 0 0 0
0 0 0 0 0 0 0 0 0 0 0 0 0 0 0 0 0 0 0 0 0 0 0 0 0 0 0 0 0 0 0 0 0 0 0 0 0 0
0 0 0 0 0 0 0 0 0 0 0 0 0 0 0 0 0 0 0 0 0 0 0 0 0 0 0 0 0 0 0 0 0 0 0 0 0 0
0 0 0 0 0 0 0 0 0 0 0 0 0 0 0 0 0 0 0 0 0 0 0 0 0 0 0 0 0 0 0 0 0 0 0 0 0 0
0 0 0 0 0 0 0 0 0 0 0 0 0 0 0 0 0 0 0 0 0 0 0 0 0 0 0 0 0 0 0 0 0 0 0 0 0 0
0 0 0 0 0 0 0 0 0 0 0 0 0 0 0 0 0 0 0 0 0 0 0 0 0 0 0 0 0 0 0 0 0 0 0 0 0 0
0 0 0 0 0 0 0 0 0 0 0 0 0 0 0 0 0 0 0 0 0 0 0 0 0 0 0 0 0 0 0 0 0 0 0 0 0 0
Wind_Speed
3 3 2 2 2 3 3 3 3 2 3 3 2 2 2 2 4 3 4 8 13 15 16 17 17 18 19 20 21 21 21 20 20 21 20 20 20 21
3 3 3 3 3 2 2 3 3 4 4 3 3 3 3 3 4 3 5 8 11 13 15 16 17 17 18 20 21 21 21 20 20 20 20 19 19 19
3 3 4 4 3 3 2 2 2 3 4 4 3 3 3 4 4 3 4 5 5 11 14 15 16 17 18 19 20 21 21 21 21 21 20 20 19 19
4 4 5 4 4 3 3 3 3 4 4 5 3 3 4 4 4 4 4 4 4 9 12 14 15 16 17 18 19 20 20 21 21 21 21 20 20 20
4 4 5 4 4 4 4 4 4 4 3 3 4 3 3 3 3 3 4 3 4 6 9 12 14 15 16 17 18 19 19 20 20 20 20 20 19 19
4 4 5 5 6 5 5 5 4 3 3 3 3 3 3 3 2 3 3 3 4 4 5 6 9 12 14 16 17 18 19 19 20 20 20 19 19 18
5 5 6 8 9 7 5 5 4 3 3 3 3 3 3 2 3 2 3 3 4 3 3 4 4 5 7 11 15 17 18 18 19 19 19 19 19 18
6 6 7 8 9 9 10 9 8 6 5 4 4 5 5 4 3 3 3 2 3 2 2 3 3 5 5 6 10 15 17 18 18 18 18 18 18 18
6 6 6 6 6 4 6 8 8 11 11 7 6 7 6 5 4 4 4 4 4 3 1 3 3 4 4 5 10 13 15 17 18 18 18 18 17 17
6 6 6 6 6 5 5 5 5 6 8 7 7 8 7 6 6 6 5 4 4 3 3 3 3 3 3 3 7 11 14 15 16 17 17 17 16 16
6 5 5 5 8 7 5 5 6 6 8 10 10 10 11 10 7 3 3 3 3 3 3 3 2 1 2 2 4 8 11 13 14 15 15 15 15 14
5 5 7 7 8 7 4 4 6 6 5 5 5 6 6 7 9 6 5 5 3 3 3 3 2 2 1 1 2 3 5 8 11 12 13 13 13 9
4 4 5 8 9 8 5 5 8 6 4 4 4 4 4 4 5 5 5 5 5 4 3 3 2 2 2 1 1 2 3 3 5 6 10 12 13 11
5 4 5 9 9 9 6 7 10 7 3 3 4 4 4 5 5 5 5 6 6 6 5 4 3 3 3 2 2 2 2 3 4 4 5 8 10 11
5 8 9 10 9 7 9 10 7 4 3 4 5 5 5 5 4 3 3 4 4 5 5 5 5 4 4 4 3 3 3 3 4 5 5 6 6 6
4 7 9 9 7 8 8 6 4 4 5 5 5 5 3 3 3 3 3 3 3 3 4 5 5 5 4 4 4 4 4 5 5 5 5 4 5 6
3 3 3 3 4 4 3 4 3 3 4 4 4 4 3 3 3 3 3 3 3 3 3 2 3 4 4 4 4 4 4 4 5 6 5 5 5 6
2 3 3 4 4 4 4 4 3 4 4 4 4 4 4 4 4 3 3 3 3 4 3 3 2 1 1 1 4 5 4 4 5 6 5 5 5 5
3 4 4 4 5 4 4 4 4 4 3 3 3 4 4 4 3 4 3 3 3 4 3 3 3 3 4 3 2 4 5 5 5 5 5 4 5 5
4 5 5 5 5 5 4 4 4 3 3 3 3 3 3 3 3 3 4 4 4 3 3 3 4 5 5 4 3 2 4 5 5 5 4 2 2 3
5 5 5 5 5 4 4 4 3 3 3 3 3 3 3 3 3 3 3 5 4 3 4 4 4 5 2 2 2 1 1 2 4 4 5 4 3 3
5 5 5 5 4 4 4 3 3 3 3 3 3 3 2 2 3 3 3 3 4 4 4 3 2 2 3 4 4 3 2 2 3 5 4 3 5 6
5 5 5 5 4 3 3 3 3 3 3 3 3 3 2 2 2 3 3 3 3 3 3 2 1 2 2 3 3 3 4 4 3 2 2 5 2 3
Wind_Direction
271 266 255 252 237 223 207 191 191 247 275 270 273 273 263 257 255 238 237 228 224 222 220 221 220 217 213 211 211 212 213 213 213 213 214 214 216 218
265 264 264 259 258 244 224 211 194 198 242 261 259 274 283 279 259 241 239 239 233 228 223 223 222 220 216 212 210 210 210 211 212 212 212 212 213 215
285 273 270 263 256 256 243 225 216 198 233 264 261 275 281 280 284 261 250 237 237 234 228 224 222 221 218 214 211 210 210 211 212 212 212 212 213 214
280 279 276 274 261 253 244 238 231 217 216 251 265 269 267 269 269 267 263 250 237 239 233 227 223 221 219 217 214 211 211 211 210 211 211 212 213 215
271 267 268 267 264 255 246 243 240 241 217 228 253 252 263 269 276 278 272 268 261 250 238 230 225 222 219 216 215 213 212 211 210 210 210 211 212 214
275 267 263 254 249 249 248 242 238 239 237 237 252 256 256 265 255 263 279 267 264 260 248 238 229 224 221 216 214 214 213 212 211 210 210 211 211 212
283 276 270 266 257 246 245 234 228 228 231 236 250 257 256 259 253 248 259 271 264 243 243 240 228 224 219 217 216 214 212 211 211 210 210 209 209 209
279 282 281 275 270 269 261 249 227 222 224 225 236 238 246 241 243 246 248 258 271 251 223 247 219 229 223 214 212 210 209 209 209 209 208 207 206 206
267 274 282 281 276 269 274 276 258 246 229 218 226 232 235 230 228 244 239 235 241 243 229 253 226 232 229 222 210 207 208 208 208 207 205 204 204 203
266 261 264 274 273 262 260 266 262 259 245 230 225 232 234 230 220 229 236 249 259 246 213 242 233 228 227 221 214 210 209 207 206 204 202 200 199 199
276 274 269 270 273 270 258 259 268 271 264 246 233 236 240 240 229 225 232 229 255 255 215 216 231 225 230 228 215 205 204 202 200 198 197 195 193 191
286 282 276 274 277 273 248 247 257 261 267 275 263 254 249 251 240 220 215 219 229 247 221 197 210 188 237 245 201 192 193 195 193 193 193 190 185 185
278 282 280 287 284 275 257 240 246 253 257 257 261 263 261 253 243 229 215 210 217 236 221 185 202 197 199 223 233 195 183 179 180 189 191 190 186 185
262 270 275 286 285 279 270 255 258 263 255 255 257 258 255 252 248 237 226 224 224 230 227 201 203 199 193 198 212 192 179 176 174 181 185 184 189 192
261 276 284 285 286 281 268 264 261 248 237 245 251 253 248 247 247 247 244 236 241 242 231 217 210 204 202 203 196 187 179 185 180 180 184 185 186 181
286 293 295 289 279 271 275 270 246 231 226 236 247 251 248 245 241 231 238 230 236 255 240 221 215 207 214 206 193 195 186 179 179 181 180 186 185 188
296 298 298 303 300 291 281 269 255 243 237 237 239 247 244 240 246 238 228 219 219 236 248 236 220 216 212 195 195 196 185 186 182 175 175 185 195 193
253 272 281 280 279 279 279 277 262 250 243 237 234 236 240 239 245 241 224 219 225 230 232 225 203 194 222 251 203 189 188 189 182 179 175 179 194 193
230 256 262 268 270 271 269 264 261 255 242 236 236 237 237 240 238 237 230 225 230 232 228 210 198 195 204 221 244 200 186 181 175 180 184 182 190 191
231 248 256 260 262 263 265 263 262 265 254 246 243 242 238 235 237 236 228 223 224 225 227 215 206 204 209 201 197 212 193 179 177 180 175 152 133 136
244 246 250 253 255 256 258 259 258 259 258 250 243 242 239 233 241 242 228 225 221 214 223 230 225 207 184 139 151 196 203 181 174 172 162 156 158 164
248 248 252 253 252 253 255 257 262 263 266 258 253 252 247 236 245 251 232 220 220 221 223 228 199 168 170 181 189 186 174 134 100 94 87 139 166 178
246 245 246 251 249 251 251 252 252 257 262 262 261 258 254 248 247 248 240 229 223 224 219 209 183 175 187 185 182 175 170 163 143 123 56 19 86 155